User: anonymous   Login
Location: Theodore Roosevelt Nature Center
(40.5943°N, 73.5104°W)
Time: 07:48:02
(UTC-05:00)
Language:

DIWATA 2B (PO-101) - Orbit

View from above orbital plane
View from above orbital plane
View from above satellite
View from above satellite

Ground track
Ground track

The orbit data is extracted from the following two-line orbital elements,

1 43678U 18084H   19348.11814825 -.00000081  00000-0 -23961-5 0  9991
2 43678  97.8673 101.7816 0011375  74.8429 285.4017 14.91591657 61243
Epoch (UTC): 14 December 2019 02:50:08
Eccentricity: 0.0011375
inclination: 97.8673°
perigee height: 585 km
apogee height: 601 km
right ascension of ascending node: 101.7816°
argument of perigee: 74.8429°
revolutions per day: 14.91591657
mean anomaly at epoch: 285.4017°
orbit number at epoch: 6124

The dashed part of the orbit path shows where the satellite is in the earth's shadow,  

DLR